Location: Recife
(8.0585°S, 34.8848°W)
Time: 21:16:05
(UTC-03:00)

A-11 Canister half - Pass Details

Date: 14 April 2026
Orbit: 1515 x 1684 km, 47.2° (Epoch: 16 May)

Event Time Altitude Azimuth Distance (km) Brightness Sun altitude
Rises 02:10:02 0° 228° (SW) 4,711 - -48.0°
Reaches altitude 10° 02:13:10 10° 231° (SW) 3,709 - -47.2°
Maximum altitude 02:22:17 61° 309° (NW) 1,691 - -44.9°
Exits shadow 02:27:17 29° 17° (NNE) 2,476 10.1 -43.7°
Drops below altitude 10° 02:31:19 10° 27° (NNE) 3,666 11.2 -42.7°
Sets 02:34:24 0° 31° (NNE) 4,653 11.9 -42.0°
